This demonstration page uses our WeatherBlox Daily Observations layout. Learn more.

41.55636, -103.73856

Hourly Observations for May 5, 2016

Temp ( °F °C ) Dew Point ( °F °C ) Humidity (%) Winds ( mph kmh ) Pressure ( in mb ) Visibility ( mi km ) Precip ( " mm )
12:53 am 00:53 Clear 50 10 41 5 71 71 E 9 15 30.01 1016 10 16.0934 0 0
1:53 am 01:53 Clear 52 11.1 41 5 66 66 E 13 20 29.98 1015 10 16.0934 0 0
2:53 am 02:53 Clear 49 9.4 40 4.4 71 71 ENE 8 13 29.97 1015 10 16.0934 0 0
3:53 am 03:53 Clear 48 8.9 40 4.4 74 74 ENE 7 11 29.97 1015 10 16.0934 0 0
4:53 am 04:53 Clear 49 9.4 39 3.9 69 69 E 10 17 29.96 1015 10 16.0934 0 0
5:53 am 05:53 Sunny 47 8.3 39 3.9 74 74 E 7 11 29.97 1015 10 16.0934 0 0
6:53 am 06:53 Sunny 54 12.2 43 6.1 67 67 E 5 7 29.96 1015 10 16.0934 0 0
7:53 am 07:53 Sunny 58 14.4 43 6.1 58 58 ESE 8 13 29.97 1015 10 16.0934 0 0
8:53 am 08:53 Sunny 64 17.8 45 7.2 50 50 ESE 6 9 29.96 1014 10 16.0934 0 0
9:53 am 09:53 Sunny 70 21.1 43 6.1 38 38 Calm 29.95 1014 10 16.0934 0 0
10:53 am 10:53 Sunny 73 22.8 43 6.1 34 34 Calm 29.94 1014 10 16.0934 0 0
11:53 am 11:53 Sunny 76 24.4 41 5 29 29 Calm 29.92 1013 10 16.0934 0 0
12:53 pm 12:53 Sunny 79 26.1 38 3.3 23 23 Calm 29.89 1012 10 16.0934 0 0
1:53 pm 13:53 Sunny 82 27.8 38 3.3 21 21 SW 3 6 29.87 1012 10 16.0934 0 0
2:53 pm 14:53 Sunny 85 29.4 36 2.2 17 17 W 5 7 29.85 1011 10 16.0934 0 0
3:53 pm 15:53 Sunny 83 28.3 39 3.9 21 21 W 6 9 29.85 1011 10 16.0934 0 0
4:53 pm 16:53 Sunny 83 28.3 37 2.8 19 19 NNW 3 6 29.83 1010 10 16.0934 0 0
5:53 pm 17:53 Sunny 81 27.2 41 5 24 24 E 3 6 29.83 1010 10 16.0934 0 0
6:53 pm 18:53 Sunny 77 25 44 6.7 31 31 ESE 6 9 29.81 1009 10 16.0934 0 0
7:53 pm 19:53 Sunny 74 23.3 41 5 31 31 SE 7 11 29.82 1010 10 16.0934 0 0
8:53 pm 20:53 Clear 65 18.3 44 6.7 47 47 ESE 7 11 29.83 1010 10 16.0934 0 0
9:53 pm 21:53 Clear 61 16.1 42 5.6 50 50 E 8 13 29.85 1011 10 16.0934 0 0
10:53 pm 22:53 Clear 63 17.2 44 6.7 50 50 SSE 6 9 29.84 1011 10 16.0934 0 0
11:53 pm 23:53 Clear 66 18.9 41 5 40 40 S 7 11 29.83 1010 10 16.0934 0 0

Powered by AerisWeather